Weather History for Crestview, FL

Change the Weather History Date:

Wednesday, June 26, 2013

  Actual Average Record
Temperature  
Mean Temperature 79 °F -  
Max Temperature 90 °F - - ()
Min Temperature 69 °F - - ()
Cooling Degree Days 14    
Growing Degree Days 29 (Base 50)    
Moisture  
Dew Point 72 °F    
Average Humidity 76    
Maximum Humidity 100    
Minimum Humidity 52    
Precipitation  
Precipitation 0.00 in - - ()
Sea Level Pressure  
Sea Level Pressure 30.04 in    
Wind  
Wind Speed 4 mph (South)    
Max Wind Speed 14 mph    
Max Gust Speed -    
Visibility 8 miles    
Events Thunderstorm    
T = Trace of Precipitation, MM = Missing Value Source: NWS Daily Summary

Daily Weather History Graph

Daily Weather History Graph

Search for Another Location

Airport:

Trip Planner

Search our weather history database for the weather conditions in past years. The results will help you decide how hot, cold, wet, or windy it might be!

Date:

Astronomy

Jun. 26, 2013 Rise Set
Actual Time 5:45 AM CDT 7:52 PM CDT
Civil Twilight 5:17 AM CDT 8:20 PM CDT
Nautical Twilight 4:43 AM CDT 8:54 PM CDT
Astronomical Twilight 4:07 AM CDT 9:30 PM CDT
Moon 10:33 PM CDT (6/26) 9:20 AM CDT (6/26)
Length of Visible Light 15h 02m
Length of Day
14h 07m
Waning Gibbous, 85% of the Moon is Illuminated
Jun 26
Waning Gibbous
Jun 29
Last Quarter
Jul 8
New
Jul 15
First Quarter
Jul 22
Full

Hourly Weather History & Observations

Time (CDT) Temp. Heat Index Dew Point Humidity Pressure Visibility Wind Dir Wind Speed Gust Speed Precip Events Conditions
12:58 AM 73.4 °F - 72.3 °F 96% 30.04 in 10.0 mi South 4.6 mph - N/A   Clear
1:58 AM 72.3 °F - 71.4 °F 97% 30.04 in 10.0 mi NE 2.3 mph - N/A   Clear
2:58 AM 72.3 °F - 72.0 °F 99% 30.03 in 5.0 mi NW 1.2 mph - N/A   Clear
3:58 AM 71.4 °F - 71.2 °F 99% 30.02 in 4.0 mi Calm Calm - N/A   Clear
4:58 AM 70.5 °F - 70.2 °F 99% 30.04 in 4.0 mi Calm Calm - N/A   Clear
5:38 AM 69.8 °F - 69.8 °F 100% 30.05 in 2.5 mi NNE 1.2 mph - N/A   Clear
5:58 AM 70.0 °F - 69.6 °F 99% 30.06 in 2.5 mi Calm Calm - N/A   Clear
6:58 AM 73.4 °F - 72.9 °F 98% 30.07 in 3.0 mi ENE 1.2 mph - N/A   Clear
7:58 AM 79.0 °F - 73.2 °F 82% 30.10 in 3.0 mi Variable 2.3 mph - N/A   Haze
8:55 AM 83.3 °F 89.6 °F 73.4 °F 72% 30.10 in 10.0 mi Calm Calm - N/A   Mostly Cloudy
9:55 AM 85.6 °F 91.1 °F 71.1 °F 62% 30.09 in 10.0 mi Calm Calm - N/A   Mostly Cloudy
10:58 AM 86.2 °F 91.1 °F 70.5 °F 59% 30.09 in 10.0 mi Calm Calm - N/A   Mostly Cloudy
11:55 AM 88.9 °F 93.8 °F 69.6 °F 53% 30.07 in 10.0 mi NNW 5.8 mph - N/A   Mostly Cloudy
12:20 PM 89.6 °F 94.7 °F 69.8 °F 52% 30.07 in 10.0 mi North 6.9 mph - N/A Thunderstorm Thunderstorm
12:46 PM 87.8 °F 93.8 °F 71.6 °F 58% 30.06 in 10.0 mi South 10.4 mph - N/A   Mostly Cloudy
12:57 PM 87.8 °F 94.3 °F 71.8 °F 59% 30.06 in 10.0 mi South 6.9 mph - N/A   Mostly Cloudy
1:55 PM 88.9 °F 96.6 °F 72.7 °F 59% 30.05 in 10.0 mi South 9.2 mph - N/A   Mostly Cloudy
2:56 PM 89.6 °F 97.7 °F 72.9 °F 58% 30.04 in 10.0 mi South 6.9 mph - N/A   Mostly Cloudy
3:55 PM 88.5 °F 95.3 °F 72.0 °F 58% 30.01 in 10.0 mi South 9.2 mph - N/A   Mostly Cloudy
4:55 PM 87.1 °F 94.1 °F 72.5 °F 62% 30.01 in 10.0 mi South 13.8 mph - N/A   Mostly Cloudy
5:55 PM 87.1 °F 92.8 °F 71.4 °F 59% 30.01 in 5.0 mi SW 11.5 mph - N/A   Haze
6:55 PM 85.3 °F 91.1 °F 72.0 °F 64% 30.00 in 7.0 mi SW 8.1 mph - N/A   Mostly Cloudy
7:55 PM 82.0 °F 87.2 °F 72.7 °F 73% 30.00 in 7.0 mi SSW 6.9 mph - N/A   Mostly Cloudy
8:55 PM 81.5 °F 86.5 °F 73.0 °F 75% 30.01 in 10.0 mi SSW 6.9 mph - N/A   Mostly Cloudy
9:55 PM 79.2 °F - 73.4 °F 82% 30.03 in 10.0 mi South 2.3 mph - N/A   Mostly Cloudy
10:55 PM 77.4 °F - 73.2 °F 87% 30.02 in 10.0 mi South 5.8 mph - N/A   Mostly Cloudy
11:55 PM 77.7 °F - 73.2 °F 86% 30.02 in 10.0 mi SSW 6.9 mph - N/A   Mostly Cloudy